Flag for U.S.A. Weather past 2 weeks in Canton, Ohio, U.S.A.

Now
71 °F

Light rain. Overcast.


Feels Like: 68 °F
Forecast: 63 / 75 °F
Wind: 3 mph from South

Location: Akron-Canton Regional Airport

Current Time: Jul 8, 2015 at 12:33:52 AM

Latest Report: Jul 7, 2015 at 10:51 PM


Visibility: 10 mi

Pressure: 29.95 "Hg

Humidity: 90%

Dew point: 68 °F

Location of CantonLocation

Historic Weather in Canton — Graph

°F

Canton temperature yesterday

Maximum temperature yesterday: 84 °F (at 2:51 PM)
Minimum temperature yesterday: 68 °F (at 3:51 AM)
Average temperature yesterday: 74 °F

Past Weeks' High & Low Weather Summary

 TemperatureHumidityPressure
High86 °F (Jul 6, 2:51 PM)93% (Jun 27, 9:51 AM)30.15 "Hg (Jun 27, 9:51 AM)
Low53 °F (Jul 3, 5:51 AM)38% (Jul 4, 4:51 PM)29.58 "Hg (Jun 28, 2:51 AM)
Average69 °F72%29.93 "Hg
* Reported Jun 22 10:51 PM — Jul 7 10:51 PM, Canton, Weather by CustomWeather, © 2015

Note: Actual official high and low records may vary slightly from our data, if they occured in-between our weather recording intervals... More about our weather records

Advertising

Canton weather history for previous 24 hours

 ConditionsComfort  
Time TempWeatherWind HumidityBarometerVisibility
10:51 PM
Tue, Jul 7
71 °FLight rain. Overcast.3 mph90%29.95 "Hg10 mi
9:51 PM71 °FLow clouds.3 mph90%29.94 "Hg10 mi
8:51 PM71 °FOvercast.3 mph90%29.93 "Hg10 mi
7:51 PM71 °FLight rain. Overcast.3 mph90%29.93 "Hg7 mi
6:51 PM71 °FThunderstorms. Mostly cloudy.12 mph87%29.95 "Hg1 mi
6:01 PM72 °FThunderstorms. Fog.3 mph87%29.96 "Hg1 mi
4:51 PM83 °FMostly cloudy.16 mph63%29.89 "Hg8 mi
3:51 PM84 °FBroken clouds.21 mph59%29.89 "Hg8 mi
2:51 PM84 °FBroken clouds.17 mph59%29.90 "Hg8 mi
1:51 PM83 °FBroken clouds.17 mph63%29.91 "Hg8 mi
12:51 PM81 °FPartly sunny.15 mph69%29.94 "Hg7 mi
11:51 AM79 °FOvercast.14 mph74%29.95 "Hg6 mi
10:51 AM78 °FOvercast.13 mph76%29.96 "Hg7 mi
9:51 AM77 °FPartly sunny.15 mph77%29.96 "Hg7 mi
8:51 AM74 °FScattered clouds.10 mph79%29.98 "Hg6 mi
7:51 AM71 °FPartly sunny.9 mph84%29.98 "Hg5 mi
6:51 AM69 °FPartly cloudy.9 mph84%29.98 "Hg5 mi
5:51 AM68 °FPassing clouds.8 mph84%29.97 "Hg6 mi
4:51 AM69 °FPassing clouds.8 mph81%29.97 "Hg7 mi
3:51 AM68 °FClear.8 mph82%29.97 "Hg8 mi
2:51 AM69 °FClear.6 mph84%29.98 "Hg8 mi
1:51 AM70 °FClear.6 mph84%29.97 "Hg8 mi
12:51 AM72 °FMostly cloudy.6 mph84%29.99 "Hg8 mi
Weather by CustomWeather, © 2015

See weather overviewHow to use our weather pages